OE3APM-13 Weather Reports


Display with metric or nautical units.
time (UTC)temp
F
wind
direction
speed
MPH
gust
MPH
rain 1hr
in
rain 24hr
in
rain mn
in
humidity
%
barometer
mb
20260906134630 72 338 8.0 14.0 0.00 0.00 0.00 38 1027.0
20260906134130 72 315 6.0 18.0 0.00 0.00 0.00 39 1027.0
20260906133631 72 303 4.0 18.0 0.00 0.00 0.00 38 1027.0
20260906133131 72 301 5.0 12.0 0.00 0.00 0.00 40 1027.0
20260906132631 72 309 6.0 12.0 0.00 0.00 0.00 41 1027.0
20260906132130 72 300 6.0 13.0 0.00 0.00 0.00 39 1027.0
20260906131632 72 325 7.0 13.0 0.00 0.00 0.00 40 1027.1
20260906131140 71 280 7.0 12.0 0.00 0.00 0.00 41 1027.0
20260906130631 71 309 8.0 12.0 0.00 0.00 0.00 41 1027.1
20260906130141 71 325 8.0 13.0 0.00 0.00 0.00 41 1027.1
20260906125632 71 291 8.0 13.0 0.00 0.00 0.00 42 1027.1
20260906125130 71 327 7.0 13.0 0.00 0.00 0.00 40 1027.1
20260906124632 71 336 6.0 12.0 0.00 0.00 0.00 42 1027.2
20260906124131 71 298 6.0 12.0 0.00 0.00 0.00 43 1027.2
20260906123630 71 262 6.0 12.0 0.00 0.00 0.00 44 1027.3
20260906123131 71 292 8.0 14.0 0.00 0.00 0.00 43 1027.4
20260906122630 71 309 9.0 15.0 0.00 0.00 0.00 45 1027.4
20260906122131 71 302 8.0 15.0 0.00 0.00 0.00 43 1027.4
20260906121631 70 268 8.0 13.0 0.00 0.00 0.00 45 1027.4
20260906121130 70 332 7.0 13.0 0.00 0.00 0.00 43 1027.4
20260906120638 71 332 7.0 16.0 0.00 0.00 0.00 44 1027.6
20260906120133 70 264 7.0 16.0 0.00 0.00 0.00 44 1027.4
20260906115631 70 317 6.0 13.0 0.00 0.00 0.00 44 1027.4
20260906115132 70 315 6.0 13.0 0.00 0.00 0.00 45 1027.4
20260906114633 70 298 6.0 13.0 0.00 0.00 0.00 46 1027.6
20260906114130 70 331 5.0 13.0 0.00 0.00 0.00 45 1027.6
20260906113630 69 327 7.0 14.0 0.00 0.00 0.00 46 1027.6
20260906113130 69 322 9.0 15.0 0.00 0.00 0.00 46 1027.7
20260906112631 69 334 8.0 15.0 0.00 0.00 0.00 46 1027.7
20260906112131 69 320 7.0 14.0 0.00 0.00 0.00 47 1027.8
20260906111631 69 329 7.0 15.0 0.00 0.00 0.00 48 1027.7
20260906111131 69 297 7.0 15.0 0.00 0.00 0.00 47 1027.8
20260906110630 69 302 6.0 12.0 0.00 0.00 0.00 46 1027.8
20260906110130 69 277 6.0 14.0 0.00 0.00 0.00 46 1027.8
20260906105631 69 246 6.0 14.0 0.00 0.00 0.00 46 1027.8
20260906105131 69 320 6.0 14.0 0.00 0.00 0.00 49 1027.8
20260906104631 68 318 6.0 14.0 0.00 0.00 0.00 50 1027.7
20260906104132 68 260 8.0 15.0 0.00 0.00 0.00 50 1027.8
20260906103632 68 281 8.0 15.0 0.00 0.00 0.00 50 1027.8
20260906103131 68 286 6.0 15.0 0.00 0.00 0.00 49 1027.9
20260906102629 68 279 7.0 15.0 0.00 0.00 0.00 52 1027.9
20260906102130 68 317 6.0 13.0 0.00 0.00 0.00 51 1028.1
20260906101632 68 317 6.0 13.0 0.00 0.00 0.00 53 1028.1
20260906101134 67 287 7.0 13.0 0.00 0.00 0.00 54 1028.2
20260906100630 67 327 6.0 12.0 0.00 0.00 0.00 53 1028.2
20260906100131 67 309 5.0 11.0 0.00 0.00 0.00 54 1028.2
20260906095632 67 280 6.0 11.0 0.00 0.00 0.00 55 1028.1
20260906095129 66 310 7.0 13.0 0.00 0.00 0.00 55 1028.1
20260906094629 66 292 7.0 13.0 0.00 0.00 0.00 58 1028.2
20260906094128 65 282 5.0 11.0 0.00 0.00 0.00 58 1028.2
20260906093628 64 316 6.0 12.0 0.00 0.00 0.00 58 1028.2
20260906093127 64 309 6.0 12.0 0.00 0.00 0.00 58 1028.3
20260906092625 64 308 6.0 14.0 0.00 0.00 0.00 58 1028.2
20260906092123 64 269 8.0 14.0 0.00 0.00 0.00 58 1028.2
20260906091624 64 329 8.0 16.0 0.00 0.00 0.00 59 1028.2
20260906091120 64 337 8.0 16.0 0.00 0.00 0.00 60 1028.3
20260906090621 64 329 6.0 15.0 0.00 0.00 0.00 59 1028.3
20260906090121 64 292 7.0 13.0 0.00 0.00 0.00 59 1028.2
20260906085620 64 296 7.0 14.0 0.00 0.00 0.00 59 1028.2
20260906085120 64 323 7.0 14.0 0.00 0.00 0.00 61 1028.2
20260906084619 64 275 6.0 13.0 0.00 0.00 0.00 60 1028.3
20260906084112 63 297 7.0 14.0 0.00 0.00 0.00 61 1028.3
20260906083609 62 312 7.0 14.0 0.00 0.00 0.00 64 1028.2
20260906083108 62 315 7.0 13.0 0.00 0.00 0.00 63 1028.2
20260906082608 63 309 7.0 14.0 0.00 0.00 0.00 62 1028.1
20260906082108 63 311 6.0 14.0 0.00 0.00 0.00 63 1028.0
20260906081609 63 296 7.0 13.0 0.00 0.00 0.00 64 1028.0
20260906081108 62 292 7.0 14.0 0.00 0.00 0.00 64 1028.0
20260906080609 62 313 7.0 14.0 0.00 0.00 0.00 66 1028.0
20260906080115 61 287 7.0 13.0 0.00 0.00 0.00 66 1028.0
20260906075609 61 306 7.0 13.0 0.00 0.00 0.00 68 1028.0
20260906075107 61 276 6.0 13.0 0.00 0.00 0.00 67 1028.0
20260906074608 60 286 5.0 11.0 0.00 0.00 0.00 68 1027.9
20260906074103 60 323 6.0 11.0 0.00 0.00 0.00 68 1027.9
20260906073603 60 292 7.0 13.0 0.00 0.00 0.00 69 1027.8
20260906073104 60 332 6.0 13.0 0.00 0.00 0.00 68 1027.8
20260906072603 60 260 5.0 9.0 0.00 0.00 0.00 71 1027.8
20260906072103 59 265 5.0 9.0 0.00 0.00 0.00 70 1027.7
20260906071605 59 331 5.0 10.0 0.00 0.00 0.00 70 1027.7
20260906071054 59 322 6.0 10.0 0.00 0.01 0.00 71 1027.6
20260906070548 58 292 6.0 11.0 0.00 0.01 0.00 70 1027.6
20260906070039 58 321 5.0 11.0 0.00 0.01 0.00 71 1027.3
20260906065541 58 324 5.0 10.0 0.00 0.01 0.00 71 1027.3
20260906065031 58 313 4.0 10.0 0.00 0.01 0.00 74 1027.3
20260906064531 57 294 4.0 10.0 0.00 0.01 0.00 74 1027.2
20260906064031 57 308 4.0 9.0 0.00 0.02 0.00 74 1027.3
20260906063530 56 226 4.0 8.0 0.00 0.02 0.00 76 1027.2
20260906063030 55 286 3.0 8.0 0.00 0.02 0.00 78 1027.2
20260906062532 55 315 3.0 7.0 0.00 0.02 0.00 79 1027.2
20260906062031 54 296 2.0 6.0 0.00 0.02 0.00 81 1027.2
20260906061530 53 294 1.0 5.0 0.00 0.02 0.00 83 1027.1
20260906061030 52 292 1.0 5.0 0.00 0.02 0.00 87 1027.0
20260906060531 51 263 1.0 3.0 0.00 0.02 0.00 91 1027.1
20260906060030 51 263 1.0 2.0 0.00 0.02 0.00 92 1027.1
20260906055532 50 259 1.0 2.0 0.00 0.02 0.00 93 1027.0
20260906055031 50 259 1.0 2.0 0.00 0.03 0.00 93 1027.0
20260906054530 49 259 0.0 0.0 0.00 0.04 0.00 93 1026.9
20260906054030 49 259 0.0 0.0 0.00 0.05 0.00 93 1026.8
20260906053532 48 259 0.0 0.0 0.00 0.06 0.00 92 1026.8
20260906053033 47 259 0.0 0.0 0.00 0.06 0.00 92 1026.8
20260906052531 47 259 0.0 0.0 0.00 0.07 0.00 91 1026.7
20260906052028 46 259 0.0 0.0 0.00 0.08 0.00 90 1026.7
20260906051517 46 259 0.0 0.0 0.00 0.08 0.00 89 1026.8
20260906051014 46 259 0.0 0.0 0.00 0.08 0.00 88 1026.7
20260906050516 46 259 0.0 0.0 0.00 0.08 0.00 87 1026.7
20260906050014 46 259 0.0 0.0 0.00 0.08 0.00 87 1026.7
20260906045514 46 259 0.0 0.0 0.00 0.08 0.00 86 1026.6
20260906045012 46 259 0.0 0.0 0.00 0.08 0.00 86 1026.6
20260906044512 46 259 0.0 0.0 0.00 0.08 0.00 85 1026.5
20260906044011 46 259 0.0 0.0 0.00 0.08 0.00 85 1026.5
20260906043511 46 259 0.0 0.0 0.00 0.08 0.00 85 1026.4
20260906043012 46 259 0.0 0.0 0.00 0.08 0.00 84 1026.3
20260906042509 47 259 0.0 0.0 0.00 0.08 0.00 85 1026.3
20260906042009 47 259 0.0 0.0 0.00 0.08 0.00 84 1026.2
20260906041506 47 259 0.0 0.0 0.00 0.08 0.00 84 1026.2
20260906041006 47 259 0.0 0.0 0.00 0.08 0.00 85 1026.2
20260906040505 47 259 0.0 0.0 0.00 0.09 0.00 84 1026.2
20260906040002 47 259 0.0 0.0 0.00 0.10 0.00 83 1026.2
20260906035502 47 259 0.0 0.0 0.00 0.10 0.00 83 1026.1
20260906035003 48 259 0.0 0.0 0.00 0.11 0.00 83 1026.1
20260906034504 48 259 0.0 0.0 0.00 0.11 0.00 83 1026.1
20260906033955 48 259 0.0 0.0 0.00 0.11 0.00 82 1026.0
20260906033454 48 259 0.0 0.0 0.00 0.11 0.00 81 1026.0
20260906032952 49 259 0.0 0.0 0.00 0.11 0.00 81 1026.1
20260906032452 49 259 0.0 0.0 0.00 0.11 0.00 81 1026.1
20260906031952 49 259 0.0 0.0 0.00 0.11 0.00 81 1026.1
20260906031452 49 259 0.0 0.0 0.00 0.11 0.00 80 1026.1
20260906030952 50 259 0.0 0.0 0.00 0.11 0.00 80 1026.0
20260906030450 50 259 0.0 0.0 0.00 0.11 0.00 79 1025.9
20260906025950 50 259 0.0 0.0 0.00 0.11 0.00 80 1025.9
20260906025452 50 259 0.0 0.0 0.00 0.11 0.00 79 1025.9
20260906024950 51 259 0.0 0.0 0.00 0.11 0.00 79 1025.9
20260906024447 51 259 0.0 0.0 0.00 0.11 0.00 78 1025.9
20260906023946 51 259 0.0 0.0 0.00 0.11 0.00 78 1025.9
20260906023444 51 259 0.0 0.0 0.00 0.11 0.00 77 1025.8
20260906022945 51 259 0.0 0.0 0.00 0.11 0.00 77 1025.7
20260906022448 51 259 0.0 0.0 0.00 0.11 0.00 77 1025.8
20260906021942 52 259 0.0 0.0 0.00 0.11 0.00 76 1025.8
20260906021444 52 259 0.0 2.0 0.00 0.11 0.00 76 1025.8
20260906020942 52 259 1.0 3.0 0.00 0.11 0.00 76 1025.7
20260906020442 52 259 1.0 3.0 0.00 0.11 0.00 75 1025.8
20260906015942 53 259 0.0 2.0 0.00 0.11 0.00 75 1025.7
20260906015441 53 255 0.0 2.0 0.00 0.11 0.00 74 1025.7
20260906014943 53 255 1.0 2.0 0.00 0.11 0.00 74 1025.7
20260906014442 53 255 1.0 2.0 0.00 0.11 0.00 74 1025.7
20260906013944 53 255 1.0 2.0 0.00 0.11 0.00 73 1025.5
20260906013441 54 255 1.0 3.0 0.00 0.11 0.00 73 1025.5
20260906012940 54 255 2.0 3.0 0.00 0.11 0.00 72 1025.4
20260906012438 54 255 1.0 3.0 0.00 0.11 0.00 72 1025.4
20260906011938 54 252 1.0 3.0 0.00 0.11 0.00 71 1025.4
20260906011436 55 252 2.0 4.0 0.00 0.11 0.00 71 1025.4
20260906010939 55 242 2.0 4.0 0.00 0.11 0.00 71 1025.4
20260906010436 55 234 2.0 3.0 0.00 0.11 0.00 71 1025.4
20260906005935 55 234 2.0 4.0 0.00 0.11 0.00 70 1025.3
20260906005434 55 227 3.0 5.0 0.00 0.11 0.00 70 1025.3
20260906004934 56 234 3.0 6.0 0.00 0.11 0.00 70 1025.3
20260906004434 56 227 3.0 6.0 0.00 0.11 0.00 69 1025.2
20260906003937 56 252 2.0 4.0 0.00 0.11 0.00 69 1025.2
20260906003433 56 265 1.0 4.0 0.00 0.11 0.00 68 1025.2
20260906002930 57 295 1.0 3.0 0.00 0.11 0.00 67 1025.2
20260906002430 57 295 1.0 3.0 0.00 0.11 0.00 67 1025.2
20260906001938 58 295 1.0 3.0 0.00 0.11 0.00 66 1025.1
20260906001430 58 295 2.0 3.0 0.00 0.11 0.00 66 1025.1
20260906000929 58 302 2.0 3.0 0.00 0.11 0.00 65 1025.1
20260906000430 58 275 2.0 6.0 0.00 0.11 0.00 65 1025.2
20260905235930 58 287 2.0 6.0 0.00 0.11 0.00 65 1025.1
20260905235429 59 282 2.0 8.0 0.00 0.11 0.00 65 1025.0
20260905234930 59 333 3.0 8.0 0.00 0.11 0.00 64 1025.0
20260905234426 59 306 3.0 8.0 0.00 0.11 0.00 65 1024.9
20260905233926 59 307 4.0 8.0 0.00 0.11 0.00 65 1024.9
20260905233427 59 293 4.0 8.0 0.00 0.11 0.00 65 1024.9
20260905232927 59 311 4.0 10.0 0.00 0.11 0.00 65 1024.8
20260905232426 59 290 4.0 10.0 0.00 0.11 0.00 66 1024.8
20260905231926 58 290 4.0 10.0 0.00 0.11 0.00 66 1024.8
20260905231426 58 307 5.0 10.0 0.00 0.11 0.00 66 1024.9
20260905230926 58 317 4.0 10.0 0.00 0.11 0.00 66 1024.8
20260905230428 58 323 3.0 8.0 0.00 0.11 0.00 66 1024.8
20260905225927 58 301 4.0 8.0 0.00 0.11 0.00 67 1024.7
20260905225426 58 306 3.0 8.0 0.00 0.11 0.00 67 1024.7
20260905224927 58 303 3.0 7.0 0.00 0.11 0.00 66 1024.7
20260905224428 58 289 3.0 6.0 0.00 0.11 0.00 66 1024.7
20260905223927 58 279 2.0 6.0 0.00 0.11 0.00 66 1024.8
20260905223427 59 279 1.0 5.0 0.00 0.11 0.00 66 1024.8
20260905222926 59 272 1.0 5.0 0.00 0.11 0.00 66 1024.8
20260905222427 59 295 2.0 4.0 0.00 0.11 0.00 66 1024.7
20260905221925 59 296 2.0 5.0 0.00 0.11 0.00 66 1024.7
20260905221419 59 311 2.0 5.0 0.00 0.11 0.00 66 1024.7
20260905220910 60 283 2.0 4.0 0.00 0.11 0.00 65 1024.6
20260905220411 60 294 1.0 4.0 0.00 0.11 0.00 65 1024.6
20260905215910 60 267 1.0 5.0 0.00 0.11 0.11 65 1024.6
20260905215410 60 290 1.0 5.0 0.00 0.11 0.11 64 1024.5
20260905214907 61 274 2.0 4.0 0.00 0.11 0.11 64 1024.4
20260905214407 61 277 2.0 6.0 0.00 0.11 0.11 63 1024.4
20260905213903 61 263 2.0 6.0 0.00 0.11 0.11 63 1024.3
20260905213404 61 294 3.0 10.0 0.00 0.11 0.11 63 1024.2
20260905212904 61 301 5.0 11.0 0.00 0.11 0.11 63 1024.2
20260905212355 61 314 5.0 11.0 0.00 0.11 0.11 63 1024.2
20260905211856 61 298 4.0 8.0 0.00 0.11 0.11 64 1024.2
20260905211356 61 302 4.0 8.0 0.00 0.11 0.11 65 1024.2
20260905210856 61 314 4.0 8.0 0.00 0.11 0.11 65 1024.1
20260905210355 61 289 3.0 7.0 0.00 0.11 0.11 66 1024.0
20260905205854 61 297 3.0 7.0 0.00 0.11 0.11 67 1023.9
20260905205355 61 269 4.0 9.0 0.00 0.11 0.11 67 1023.9
20260905204853 61 315 4.0 9.0 0.00 0.11 0.11 67 1023.9
20260905204354 61 308 4.0 8.0 0.00 0.11 0.11 67 1023.9
20260905203850 61 313 3.0 8.0 0.00 0.11 0.11 67 1023.9
20260905203340 61 296 2.0 5.0 0.00 0.11 0.11 67 1023.7
20260905202837 62 281 3.0 6.0 0.00 0.11 0.11 67 1023.7
20260905202336 62 289 3.0 7.0 0.00 0.11 0.11 67 1023.5
20260905201837 62 312 2.0 7.0 0.00 0.11 0.11 67 1023.4
20260905201336 62 308 2.0 7.0 0.00 0.11 0.11 67 1023.4
20260905200840 62 276 2.0 6.0 0.00 0.11 0.11 67 1023.4
20260905200337 62 298 2.0 6.0 0.00 0.11 0.11 67 1023.3
20260905195832 62 263 2.0 7.0 0.00 0.11 0.11 67 1023.2
20260905195335 62 273 3.0 7.0 0.00 0.11 0.11 67 1023.2
20260905194833 62 260 3.0 7.0 0.00 0.11 0.11 66 1023.2
20260905194331 63 253 3.0 7.0 0.00 0.11 0.11 66 1023.0
20260905193833 63 243 3.0 6.0 0.00 0.11 0.11 66 1023.0
20260905193331 63 247 3.0 6.0 0.00 0.11 0.11 65 1022.9
20260905192832 63 254 2.0 6.0 0.00 0.11 0.11 65 1022.8
20260905192331 63 250 3.0 7.0 0.00 0.11 0.11 65 1022.7
20260905191831 64 246 3.0 7.0 0.00 0.11 0.11 64 1022.7
20260905191331 64 255 3.0 7.0 0.00 0.11 0.11 64 1022.6
20260905190831 64 286 3.0 7.0 0.00 0.11 0.11 63 1022.6
20260905190332 64 276 3.0 8.0 0.00 0.11 0.11 63 1022.5
20260905185830 64 297 4.0 8.0 0.00 0.11 0.11 63 1022.5
20260905185330 65 286 4.0 10.0 0.00 0.11 0.11 62 1022.4
20260905184831 65 263 4.0 11.0 0.00 0.11 0.11 62 1022.3
20260905184333 65 294 4.0 11.0 0.00 0.11 0.11 62 1022.3
20260905183833 65 261 5.0 10.0 0.00 0.11 0.11 61 1022.3
20260905183330 65 224 5.0 10.0 0.00 0.11 0.11 61 1022.3
20260905182831 65 329 4.0 10.0 0.00 0.11 0.11 60 1022.2
20260905182331 66 271 4.0 10.0 0.00 0.11 0.11 60 1022.0
20260905181830 66 318 4.0 11.0 0.00 0.11 0.11 60 1022.0
20260905181329 66 236 5.0 11.0 0.00 0.11 0.11 59 1021.8
20260905180827 66 259 6.0 14.0 0.00 0.11 0.11 58 1021.8
20260905180327 66 306 6.0 14.0 0.00 0.11 0.11 58 1021.6
20260905175826 67 246 6.0 14.0 0.00 0.11 0.11 58 1021.5
20260905175323 67 229 5.0 12.0 0.00 0.11 0.11 57 1021.5
20260905174823 67 281 5.0 15.0 0.00 0.11 0.11 56 1021.4
20260905174322 67 286 6.0 15.0 0.00 0.11 0.11 55 1021.4
20260905173821 67 257 6.0 12.0 0.00 0.11 0.11 55 1021.3
20260905173327 68 275 6.0 12.0 0.00 0.11 0.11 55 1021.3
20260905172825 68 288 7.0 15.0 0.00 0.11 0.11 54 1021.2
20260905172319 68 276 7.0 16.0 0.00 0.11 0.11 54 1021.2
20260905171821 68 254 8.0 16.0 0.00 0.11 0.11 53 1021.2
20260905171312 69 244 7.0 17.0 0.00 0.11 0.11 53 1021.2
20260905170806 69 240 7.0 19.0 0.00 0.11 0.11 53 1021.1
20260905170303 69 277 7.0 14.0 0.00 0.11 0.11 53 1021.1
20260905165757 69 223 7.0 17.0 0.00 0.11 0.11 53 1021.1
20260905165253 69 270 7.0 17.0 0.00 0.11 0.11 53 1021.1
20260905164751 69 246 7.0 17.0 0.00 0.11 0.11 54 1021.1
20260905164251 69 271 6.0 17.0 0.00 0.11 0.11 54 1021.0
20260905163749 69 258 7.0 18.0 0.00 0.11 0.11 54 1021.0
20260905163248 69 263 8.0 18.0 0.00 0.11 0.11 54 1021.0
20260905162745 69 265 8.0 20.0 0.00 0.11 0.11 53 1021.1
20260905162244 70 261 7.0 20.0 0.00 0.11 0.11 52 1021.0
20260905161744 70 290 6.0 13.0 0.00 0.11 0.11 52 1021.0
20260905161242 70 303 7.0 17.0 0.00 0.11 0.11 52 1020.9
20260905160741 71 313 7.0 17.0 0.00 0.11 0.11 52 1020.8
20260905160237 71 287 7.0 15.0 0.00 0.11 0.11 51 1020.8
20260905155735 71 220 8.0 19.0 0.00 0.11 0.11 51 1020.8
20260905155234 71 313 9.0 20.0 0.00 0.11 0.11 51 1020.8
20260905154733 71 291 10.0 20.0 0.00 0.11 0.11 50 1020.7
20260905154234 71 40 8.0 18.0 0.00 0.11 0.11 50 1020.8
20260905153733 71 315 8.0 23.0 0.00 0.11 0.11 50 1020.7
20260905153235 71 281 10.0 23.0 0.00 0.11 0.11 49 1020.8
20260905152732 71 298 8.0 19.0 0.00 0.11 0.11 50 1020.7
20260905152225 71 300 7.0 19.0 0.00 0.11 0.11 51 1020.8
20260905151726 71 281 9.0 17.0 0.00 0.11 0.11 51 1020.7
20260905151218 71 251 8.0 18.0 0.00 0.11 0.11 49 1020.8
20260905150711 72 271 8.0 18.0 0.00 0.11 0.11 49 1020.6
20260905150208 72 283 8.0 17.0 0.00 0.11 0.11 50 1020.7
20260905145707 72 276 9.0 16.0 0.00 0.11 0.11 48 1020.7
20260905145207 72 280 8.0 16.0 0.00 0.11 0.11 49 1020.5
20260905144704 72 271 7.0 22.0 0.00 0.11 0.11 51 1020.6
20260905144205 72 272 7.0 22.0 0.00 0.11 0.11 52 1020.6
20260905143704 71 271 9.0 17.0 0.00 0.11 0.11 53 1020.7
20260905143203 71 293 9.0 19.0 0.00 0.11 0.11 51 1020.7
20260905142702 71 317 10.0 19.0 0.00 0.11 0.11 52 1020.8
20260905142203 71 286 11.0 25.0 0.00 0.11 0.11 52 1020.8
20260905141704 71 247 10.0 25.0 0.00 0.11 0.11 52 1020.9
20260905141205 71 292 8.0 18.0 0.00 0.11 0.11 54 1020.9
20260905140701 70 293 7.0 17.0 0.00 0.11 0.11 56 1020.9
20260905140201 69 273 8.0 17.0 0.00 0.11 0.11 58 1020.8
20260905135701 69 296 7.0 15.0 0.00 0.11 0.11 61 1020.8
20260905135159 68 326 6.0 13.0 0.00 0.11 0.11 59 1020.9